User: anonymous   Login
Location: Caltech
(34.1382°N, 118.1253°W)
Time: 17:18:39
(UTC-07:00)
Language:

Saudisat 1A - Orbit

View from above orbital plane
View from above orbital plane
View from above satellite
View from above satellite

Ground track
Ground track

The orbit data is extracted from the following two-line orbital elements,

1 26546U 00057B   14297.79032931  .00003390  00000-0  38050-3 0  4104
2 26546 064.5558 117.0265 0007308 310.8052 049.2423 14.88381254762684
Epoch (UTC): 24 October 2014 18:58:04
Eccentricity: 0.0007308
inclination: 64.5558°
perigee height: 598 km
apogee height: 608 km
right ascension of ascending node: 117.0265°
argument of perigee: 310.8052°
revolutions per day: 14.88381254
mean anomaly at epoch: 49.2423°
orbit number at epoch: 76268

The dashed part of the orbit path shows where the satellite is in the earth's shadow,  

DLR